Location: Chandrammap?lem
(16.9200°N, 81.0051°E)
Time: 05:39:16
(UTC+00:00)

Lacrosse 5 - Pass Details

Date: 29 May 2024
Orbit: 714 x 724 km, 57.0° (Epoch: 09 March)

Event Time Altitude Azimuth Distance (km) Brightness Sun altitude
Rises 14:22:47 0° 324° (NW) 3,128 6.4 -17.5°
Reaches altitude 10° 14:25:10 10° 322° (NW) 2,207 5.4 -17.9°
Maximum altitude 14:30:14 71° 240° (WSW) 764 2.0 -19.0°
Enters shadow 14:32:43 30° 163° (SSE) 1,273 2.7 -19.5°
